[[{"header":{"parameterUnit":"m.s-1","parameterCategory":1,"la1":30.2991,"la2":30.254,"lo1":-89.0895,"lo2":-89.0444,"dy":0.0017,"dx":0.0017,"nx":28,"ny":28,"refTime":"2025-01-22T09:00:00:Z","depth":0,"parameterNumber":2,"parameterNumberName":"U-component_of_WINDS"},"data":[0,0,0,0,0,0,0,0,0,0,0,0,0,0,0,0,0,0,0,0,0,0,0,0,0,0,0,0,0,0,0,0,0,0,0,0,0,0,0,0,0,0,0,0,0,0,0,0,0,0,0,0,0,0,0,0,0,0,0.0836,0.0835,0,0.0744,0.0743,0.0742,0.0776,0.0778,0.078,0.0782,0.0685,0.0681,0.0676,0,0,0,0,0,0,0,0,0,0,0,0,0,0.1038,0.1034,0.0836,0.0835,0.0833,0.0744,0.0743,0.0742,0.0776,0.0778,0.0781,0.0783,0.0687,0.0681,0.0676,0,0,0,0,0,0,0,0,0,0,0,0,0,0.0948,0.1033,0.0836,0.084,0.0839,0.0744,0.0743,0.0741,0.0775,0.0778,0.0781,0.0784,0.0688,0.0682,0.0675,0.057,0,0,0.0654,0.0651,0,0,0,0,0,0,0,0,0.0954,0.0941,0.084,0.0839,0.0838,0.0775,0.0779,0.0684,0.0774,0.0799,0.0782,0.0786,0.0712,0.0704,0.0679,0.0566,0.0562,0.0654,0.065,0.0647,0.0645,0,0,0,0,0,0,0,0.096,0.0945,0.0799,0.0839,0.0838,0.0845,0.0836,0.0761,0.0739,0.0797,0.08,0.0788,0.0712,0.0686,0.0677,0.056,0.0654,0.0648,0.0644,0.0641,0.0355,0.0352,0,0,0,0,0,0,0.0967,0.095,0.0802,0.0797,0.0905,0.0839,0.0829,0.0792,0.074,0.0735,0.0786,0.079,0.0696,0.0685,0.0674,0.0546,0.0647,0.064,0.0636,0.0359,0.0354,0.0351,0,0,0,0,0,0,0.0971,0.0953,0.0806,0.0874,0.0856,0.0832,0.0791,0.0788,0.0762,0.0731,0.0727,0.0763,0.0698,0.0684,0.0596,0.0544,0.0637,0.0631,0.0363,0.0357,0.0352,0.0291,0,0,0,0,0,0,0.0977,0.0954,0.0915,0.0873,0.0852,0.0729,0.0788,0.0784,0.0751,0.0756,0.0709,0.0704,0.0699,0.0606,0.0589,0.0536,0.0626,0.0367,0.036,0.0354,0.0297,0.0284,0.0273,0,0,0,0,0,0.0984,0.0901,0.0912,0.0894,0.0802,0.0726,0.0714,0.0711,0.0746,0.0706,0.0686,0.0706,0.0553,0.0597,0.0578,0.0522,0.037,0.0362,0.0355,0.0303,0.0287,0.0273,0,0,0,0,0,0,0.0935,0.0895,0.0908,0.0809,0.0771,0.0732,0.0681,0.0695,0.0645,0.0652,0.065,0.0639,0.0548,0.0527,0.0576,0.0418,0.0467,0.0455,0.0434,0.0418,0.0406,0.0412,0.062,0,0,0,0,0,0.0914,0.0856,0.0824,0.074,0.0721,0.0704,0.0671,0.0672,0.0632,0.0616,0.059,0.055,0.0493,0.0455,0.0401,0.0296,0.0285,0.0249,0.0237,0.0227,0.0215,0.0157,0.0139,0.0325,0.0325,0.0325,0,0,0.0867,0.0838,0.0802,0.073,0.07,0.064,0.069,0.0624,0.0579,0.0606,0.0521,0.0501,0.0456,0.0359,0.0315,0.0338,0.0162,0.0217,0.0209,0.0202,0.0147,0.0129,0.0113,0.0319,0.032,0.0321,0,0,0.0751,0.0724,0.065,0.0621,0.0576,0.0566,0.0549,0.0508,0.0496,0.0411,0.043,0.0377,0.0279,0.0245,0.0216,0.0089,0.0104,0.0072,0.0006,-0.0051,-0.0065,-0.0078,-0.0126,-0.0143,0.0062,0.0061,0.0061,0,0.0698,0.0608,0.061,0.0543,0.051,0.0534,0.0458,0.0429,0.0369,0.0345,0.0373,0.0251,0.0223,0.0117,0.0087,0.0063,0.0041,0.0075,-0.0063,-0.0076,-0.0088,-0.0134,-0.0151,0.0057,0.0058,0.0058,0.0059,0,0.0544,0.0482,0.0428,0.037,0.0332,0.0261,0.0251,0.0212,0.0218,0.0204,0.0117,0.0085,0.0024,0.0,0.0005,-0.0105,-0.0089,-0.0062,-0.0013,-0.011,-0.0153,-0.017,0.0052,0.0053,0.0054,0.0055,0,0,0.0391,0.0337,0.0317,0.029,0.0244,0.0196,0.0126,0.0068,0.0033,-0.0008,-0.0068,-0.015,-0.0125,-0.0158,-0.0157,-0.0206,-0.0307,-0.0173,-0.0174,-0.02,-0.0432,-0.0455,-0.0475,-0.0295,-0.0298,-0.0301,-0.0429,0,0.0269,0.0147,0.0147,0.0033,-0.0025,-0.0002,-0.0063,-0.0098,-0.0111,-0.0163,-0.0178,-0.0237,-0.0198,-0.0219,-0.0266,-0.0285,-0.0354,-0.0275,-0.0353,-0.0356,-0.0347,-0.0497,-0.0521,-0.0641,-0.0446,-0.0448,-0.045,0,0.0109,0.0063,-0.0057,-0.0094,-0.0119,-0.0173,-0.0227,-0.0276,-0.0315,-0.0321,-0.0358,-0.0348,-0.042,-0.0366,-0.0465,-0.0412,-0.0443,-0.0456,-0.0461,-0.0472,-0.0412,-0.0515,-0.0679,-0.0698,-0.0476,-0.0474,-0.0472,0,0.0005,-0.0086,-0.0169,-0.0192,-0.0237,-0.0277,-0.0297,-0.0333,-0.0368,-0.0414,-0.0438,-0.0491,-0.0522,-0.0564,-0.057,-0.0529,-0.0671,-0.0616,-0.068,-0.068,-0.0714,-0.0713,-0.0889,-0.0728,-0.0728,-0.0728,-0.0727,0,-0.0134,-0.0209,-0.0217,-0.0269,-0.0352,-0.0349,-0.0432,-0.0449,-0.0481,-0.0536,-0.0518,-0.0571,-0.0573,-0.0627,-0.0631,-0.0714,-0.0727,-0.0735,-0.0736,-0.0739,-0.0739,-0.0763,-0.0756,-0.0732,-0.0731,-0.073,-0.073,0,-0.0265,-0.0273,-0.0363,-0.0398,-0.0408,-0.0468,-0.0498,-0.0548,-0.0558,-0.0628,-0.0645,-0.0662,-0.0724,-0.0732,-0.0805,-0.0808,-0.0909,-0.0899,-0.0896,-0.0896,-0.096,-0.0955,-0.1161,-0.1189,-0.1006,-0.1008,-0.1009,0,-0.0356,-0.0412,-0.0453,-0.0488,-0.0511,-0.0568,-0.0603,-0.0602,-0.064,-0.0688,-0.0732,-0.0792,-0.0841,-0.0941,-0.0961,-0.1016,-0.101,-0.1078,-0.1018,-0.102,-0.1015,-0.1013,-0.1019,-0.1091,-0.1093,-0.1095,-0.1096,0,-0.0516,-0.0516,-0.0568,-0.0621,-0.0663,-0.0704,-0.0744,-0.0773,-0.0778,-0.0821,-0.0884,-0.0921,-0.0994,-0.1055,-0.111,-0.1131,-0.1116,-0.1114,-0.1132,-0.1138,-0.1135,-0.114,-0.0931,-0.111,-0.1109,-0.1108,-0.1107,-0.1106,-0.0632,-0.0682,-0.0718,-0.0775,-0.0804,-0.0841,-0.089,-0.0905,-0.0957,-0.1017,-0.1013,-0.1083,-0.112,-0.1191,-0.1216,-0.1272,-0.1249,-0.1275,-0.1282,-0.129,-0.1297,-0.1122,-0.1281,-0.1281,-0.128,-0.128,-0.128,0,-0.0794,-0.0815,-0.0868,-0.0923,-0.0968,-0.0946,-0.0988,-0.1028,-0.109,-0.1125,-0.1172,-0.1245,-0.1303,-0.1325,-0.1382,-0.1422,-0.1416,-0.1437,-0.1437,-0.1442,-0.1312,-0.1293,-0.1441,-0.1441,-0.1441,-0.1441,-0.1441,-0.1441,-0.0884,-0.0967,-0.0972,-0.107,-0.1091,-0.1159,-0.1185,-0.1219,-0.1247,-0.1329,-0.1377,-0.139,-0.1421,-0.1479,-0.1532,-0.1537,-0.156,-0.1585,-0.1588,-0.1467,-0.1451,-0.1436,-0.1417,-0.159,-0.159,-0.1713,-0.1714,-0.1715]},{"header":{"parameterUnit":"m.s-1","parameterCategory":1,"la1":30.2991,"la2":30.254,"lo1":-89.0895,"lo2":-89.0444,"dy":0.0017,"dx":0.0017,"nx":28,"ny":28,"refTime":"2025-01-22T09:00:00:Z","depth":0,"parameterNumber":3,"parameterNumberName":"V-component_of_WINDS"},"data":[0,0,0,0,0,0,0,0,0,0,0,0,0,0,0,0,0,0,0,0,0,0,0,0,0,0,0,0,0,0,0,0,0,0,0,0,0,0,0,0,0,0,0,0,0,0,0,0,0,0,0,0,0,0,0,0,0,0,-6.865,-6.8652,0,-6.8905,-6.8908,-6.8911,-6.8831,-6.8825,-6.882,-6.8815,-6.9071,-6.9083,-6.9094,0,0,0,0,0,0,0,0,0,0,0,0,0,-6.8086,-6.8097,-6.8649,-6.8653,-6.8656,-6.8905,-6.8908,-6.8912,-6.8832,-6.8825,-6.8819,-6.8812,-6.9067,-6.9081,-6.9095,0,0,0,0,0,0,0,0,0,0,0,0,0,-6.8335,-6.8101,-6.8649,-6.8646,-6.8648,-6.8904,-6.8908,-6.8913,-6.8833,-6.8825,-6.8817,-6.8809,-6.9063,-6.908,-6.9097,-6.937,0,0,-6.9152,-6.916,0,0,0,0,0,0,0,0,-6.8321,-6.8356,-6.8643,-6.8647,-6.865,-6.8828,-6.8804,-6.9066,-6.8835,-6.8763,-6.8815,-6.8805,-6.8996,-6.9019,-6.9085,-6.9382,-6.9393,-6.9153,-6.9164,-6.9172,-6.9177,0,0,0,0,0,0,0,-6.8304,-6.8344,-6.875,-6.8647,-6.8652,-6.863,-6.8657,-6.8853,-6.8922,-6.8768,-6.8763,-6.8795,-6.8997,-6.9068,-6.909,-6.9396,-6.9153,-6.9169,-6.918,-6.9187,-6.9928,-6.9937,0,0,0,0,0,0,-6.8286,-6.8331,-6.8742,-6.8758,-6.8462,-6.8647,-6.8676,-6.8779,-6.8919,-6.8933,-6.8802,-6.879,-6.9041,-6.9069,-6.9099,-6.9427,-6.9172,-6.9188,-6.9199,-6.992,-6.993,-6.994,0,0,0,0,0,0,-6.8274,-6.8323,-6.8732,-6.8543,-6.8594,-6.8665,-6.8781,-6.8788,-6.8859,-6.8945,-6.8956,-6.8862,-6.9036,-6.9074,-6.9303,-6.9435,-6.9196,-6.9213,-6.9909,-6.9923,-6.9935,-7.0085,0,0,0,0,0,0,-6.8258,-6.8319,-6.8425,-6.8546,-6.8604,-6.8934,-6.8789,-6.8799,-6.8891,-6.8878,-6.9004,-6.9017,-6.9033,-6.9277,-6.9321,-6.9455,-6.9226,-6.9897,-6.9915,-6.9931,-7.0069,-7.0102,-7.0131,0,0,0,0,0,-6.8238,-6.8456,-6.8431,-6.8481,-6.8738,-6.8942,-6.8975,-6.899,-6.8902,-6.9008,-6.9062,-6.9013,-6.9413,-6.9301,-6.935,-6.9491,-6.9889,-6.991,-6.993,-7.0055,-7.0096,-7.013,0,0,0,0,0,0,-6.8346,-6.8472,-6.8445,-6.8709,-6.8816,-6.8928,-6.9062,-6.9032,-6.9165,-6.9147,-6.9158,-6.9187,-6.9423,-6.9479,-6.9353,-6.9761,-6.9638,-6.9669,-6.9716,-6.9756,-6.9786,-6.9768,-6.9241,0,0,0,0,0,-6.8401,-6.8558,-6.8658,-6.8881,-6.8936,-6.8991,-6.908,-6.9082,-6.9192,-6.9237,-6.9308,-6.9415,-6.9565,-6.9663,-6.9805,-7.0076,-7.0102,-7.0197,-7.0228,-7.0253,-7.028,-7.0427,-7.047,-7.0007,-7.0007,-7.0006,0,0,-6.8515,-6.8603,-6.8702,-6.8905,-6.8988,-6.9149,-6.9029,-6.9204,-6.9323,-6.9262,-6.9484,-6.954,-6.966,-6.9912,-7.0026,-6.9966,-7.0413,-7.0279,-7.0298,-7.0312,-7.0452,-7.0496,-7.0535,-7.0021,-7.0018,-7.0016,0,0,-6.8806,-6.8889,-6.9084,-6.917,-6.9298,-6.9332,-6.9379,-6.9497,-6.9532,-6.9755,-6.9713,-6.9853,-7.0111,-7.0198,-7.0276,-7.06,-7.056,-7.0646,-7.0808,-7.0951,-7.0988,-7.102,-7.1136,-7.1177,-7.0672,-7.0673,-7.0673,0,-6.8932,-6.9175,-6.9187,-6.9367,-6.9458,-6.9411,-6.9608,-6.969,-6.9857,-6.992,-6.9851,-7.0174,-7.0251,-7.0522,-7.0601,-7.0666,-7.0719,-7.0632,-7.0982,-7.1014,-7.1045,-7.1155,-7.1199,-7.0682,-7.0681,-7.068,-7.0679,0,-6.9323,-6.9492,-6.9633,-6.9798,-6.9904,-7.0092,-7.0131,-7.0236,-7.0229,-7.027,-7.0497,-7.0589,-7.0749,-7.0813,-7.0807,-7.1084,-7.1043,-7.0978,-7.0854,-7.1099,-7.1202,-7.1245,-7.0696,-7.0693,-7.069,-7.0687,0,0,-6.969,-6.986,-6.9911,-6.9986,-7.0123,-7.0253,-7.0437,-7.0595,-7.0686,-7.0802,-7.0956,-7.1175,-7.1116,-7.1205,-7.1208,-7.1334,-7.1584,-7.1253,-7.1256,-7.1312,-7.1895,-7.1943,-7.1992,-7.1558,-7.1566,-7.1573,-7.1885,0,-6.9993,-7.032,-7.0336,-7.0632,-7.0788,-7.0746,-7.0906,-7.1006,-7.105,-7.1186,-7.1232,-7.1388,-7.1298,-7.1352,-7.1474,-7.1528,-7.1702,-7.1506,-7.1701,-7.1708,-7.1673,-7.2047,-7.2099,-7.2389,-7.1926,-7.1932,-7.1937,0,-7.039,-7.0521,-7.0834,-7.0949,-7.1014,-7.1159,-7.1305,-7.1437,-7.1549,-7.1571,-7.1671,-7.1656,-7.1843,-7.1712,-7.1969,-7.1835,-7.1916,-7.1954,-7.1966,-7.1985,-7.1838,-7.2076,-7.2482,-7.2526,-7.2001,-7.1996,-7.1992,0,-7.0628,-7.0881,-7.1101,-7.1165,-7.1305,-7.1407,-7.147,-7.1575,-7.1669,-7.1796,-7.1857,-7.2003,-7.2084,-7.2196,-7.222,-7.2123,-7.2478,-7.2349,-7.2501,-7.2501,-7.2578,-7.2573,-7.3003,-7.2629,-7.2628,-7.2627,-7.2627,0,-7.0965,-7.1157,-7.121,-7.1345,-7.1559,-7.1575,-7.1786,-7.184,-7.1934,-7.2078,-7.2049,-7.2184,-7.2208,-7.2348,-7.2367,-7.2577,-7.2613,-7.2636,-7.2639,-7.2639,-7.2636,-7.2692,-7.2673,-7.2639,-7.2637,-7.2634,-7.2632,0,-7.1266,-7.1309,-7.1546,-7.1659,-7.1692,-7.1845,-7.194,-7.2069,-7.2108,-7.2291,-7.2334,-7.2396,-7.2559,-7.2595,-7.2787,-7.28,-7.305,-7.3033,-7.3013,-7.3012,-7.3162,-7.3148,-7.3643,-7.3709,-7.3292,-7.3296,-7.3299,0,-7.1479,-7.1627,-7.1756,-7.1851,-7.1919,-7.2073,-7.2169,-7.2189,-7.2291,-7.243,-7.2542,-7.2702,-7.2832,-7.3094,-7.3155,-7.3302,-7.3288,-7.3452,-7.331,-7.3306,-7.3292,-7.3283,-7.3298,-7.3479,-7.3484,-7.3487,-7.349,0,-7.1853,-7.1866,-7.2007,-7.2157,-7.2273,-7.239,-7.2502,-7.2581,-7.2616,-7.2731,-7.2899,-7.3,-7.3197,-7.3357,-7.3504,-7.3566,-7.3535,-7.3534,-7.3577,-7.358,-7.3563,-7.3574,-7.3088,-7.3523,-7.352,-7.3517,-7.3516,-7.3514,-7.2117,-7.2246,-7.2358,-7.2515,-7.2602,-7.2707,-7.2834,-7.289,-7.3031,-7.3195,-7.3197,-7.338,-7.3487,-7.3683,-7.3754,-7.3896,-7.3845,-7.3907,-7.3923,-7.3938,-7.3952,-7.3539,-7.3923,-7.3922,-7.3921,-7.392,-7.3919,0,-7.2489,-7.2559,-7.2704,-7.2862,-7.2986,-7.2947,-7.3068,-7.3174,-7.3336,-7.344,-7.3569,-7.3761,-7.3915,-7.3988,-7.414,-7.424,-7.4229,-7.4279,-7.4272,-7.4287,-7.3989,-7.3937,-7.4285,-7.4285,-7.4285,-7.4285,-7.4285,-7.4285,-7.2698,-7.2915,-7.2942,-7.32,-7.3268,-7.3448,-7.3521,-7.3618,-7.3701,-7.3917,-7.4046,-7.4093,-7.4184,-7.4343,-7.4482,-7.4499,-7.4557,-7.4614,-7.4625,-7.4345,-7.4308,-7.4273,-7.4224,-7.4626,-7.4627,-7.4911,-7.4913,-7.4915]}]]